DECAYED

STARLINK-1801, 46701 (Decayed)

Orbit data source: Space-Track

STARLINK-1801, 46701 was a payload satellite owned by SpaceX/Seattle (US) in LEO that was launched on Sun, 18 Oct 2020 UTC via an FALCON 9 launch vehicle from the Air Force Eastern Test Range (AFETR). Payload-class satellites include a variety of spacecraft equipped with specific instruments for various scientific and technological missions. These include communications satellites like Starlink; space stations such as the ISS; scientific satellites like the Hubble; Earth observation satellites from companies like Planet Labs, Umbra, and HawkEye 360; GPS; miniature CubeSats for education and research; and military/defense satellites.

Not visible in the next 10 days
Identifier
46701, 2020-073AH
Orbit
Decayed
Country
Flag of USUS
Related business
Manufacturer
SpaceX/Seattle
Mission
Decayed Commercial Communications
Bus & Motor
STARLINK, Unknown motor
Mass
260 kg wet, ~248 kg dry
Launch date (UTC)
2020-10-18 (6 years ago)
Launch vehicle
FALCON 9
Launch site
Air Force Eastern Test Range (AFETR)
Object type
Payload
Rocket body
Debris
Shape & HBR
Box + 1 Pan, 10.1 m
Radar Cross Section
13.562 m², Large (>1 m²)

Expand to show TLE details & history
Last TLE update: 3 weeks ago

TLE from 3 weeks ago
0 STARLINK-1801
1 46701U 20073AH  26151.54720454  .10742885  12491-4  39665-3 0  9994
2 46701  53.0177 137.1315 0004338 281.3089  78.7472 16.44090342310915
Epoch: 2026-05-31T13:07Z
TLE epoch observation values (Epoch: 2026-05-31T13:07:58.472Z)
Latitude
0.00004°
Longitude
51.09059°
Altitude
155.32 km
Speed
7.815 km/s
True Right ascension
09h 08m 31s
True Declination
0° 00' 00"
Sunlit
Object was in daylight at epoch
Visualization orbit readout
Latitude
Unknown
Longitude
Unknown
Altitude
Unknown
Speed
Unknown
Apparent Right ascension
Unknown
Apparent Declination
Unknown
Sunlit
N/A
Visualization observer readout
Local Sidereal Time
13:25:14
Azimuth
Unknown
Elevation
Unknown
Doppler factor
Unknown
Orbital elements
Apogee altitude
158.071 km
Perigee altitude
152.403 km
Semi-major axis
6,533.374 km
Eccentricity
0.00043
Inclination
53.0177°
RAAN
137.1315°
Arg. of periapsis
281.3089°
True anomaly
78.79596°
Mean anomaly
78.7472°
Eccentric anomaly
78.77158°
Mean motion
4.10995 °/min
Orbital period
87.59 mins
BSTAR
0.00039665
Loading maneuver chart data...
Computing Atmospheric mass density...

Documentation

Showing up to 5 results
|